WUK975 EGKK-LATI

Flight info

Callsign WUK975
Flight time N/A
Altitude 35000
Route MIMFO Y312 DVR UL9 KONAN DCT KOK DCT REMBA DCT LIRSU DCT VIBOM DCT NOMBO DCT RIDAR DCT RADIZ DCT DOL DCT NIVES DCT ELTIB DCT GLOMY DCT PETAK
Aircraft A320/M-SDE3FGHIRWY/LB1

Departure

Time 2026-04-17 13:03
Airport London Gatwick Airport (EGKK)

Arrival

Time N/A
Airport Tirana International Airport Mother Teresa (LATI)
Time Latitude Longitude Altitude Speed Heading
2026-04-17 12:39 51.15494 -0.16906 205 ft 0 kts 349°
2026-04-17 12:53 51.15489 -0.16904 216 ft 2 kts 347°
2026-04-17 12:53 51.15473 -0.16899 216 ft 2 kts 349°
2026-04-17 12:53 51.15457 -0.16894 217 ft 2 kts 350°
2026-04-17 12:54 51.15440 -0.16894 215 ft 2 kts 72°
2026-04-17 12:54 51.15436 -0.16920 217 ft 2 kts 77°
2026-04-17 12:54 51.15434 -0.16935 215 ft 0 kts 78°
2026-04-17 12:56 51.15435 -0.16931 215 ft 2 kts 78°
2026-04-17 12:57 51.15441 -0.16885 213 ft 7 kts 77°
2026-04-17 12:57 51.15454 -0.16797 211 ft 9 kts 78°
2026-04-17 12:57 51.15419 -0.16724 207 ft 10 kts 164°
2026-04-17 12:57 51.15358 -0.16703 205 ft 8 kts 168°
2026-04-17 12:58 51.15315 -0.16749 211 ft 9 kts 247°
2026-04-17 12:58 51.15283 -0.16819 205 ft 6 kts 194°
2026-04-17 12:58 51.15281 -0.16820 205 ft 0 kts 192°
2026-04-17 13:01 51.15274 -0.16822 205 ft 3 kts 191°
2026-04-17 13:01 51.15225 -0.16814 206 ft 10 kts 168°
2026-04-17 13:02 51.15149 -0.16792 208 ft 12 kts 174°
2026-04-17 13:02 51.15115 -0.16859 217 ft 0 kts 259°
2026-04-17 13:02 51.15114 -0.16866 216 ft 3 kts 259°
2026-04-17 13:03 51.15071 -0.17174 214 ft 61 kts 257°
2026-04-17 13:03 51.14939 -0.18133 215 ft 114 kts 257°
2026-04-17 13:03 51.14739 -0.19594 222 ft 154 kts 256°
2026-04-17 13:03 51.14511 -0.21212 861 ft 147 kts 255°
2026-04-17 13:04 51.14293 -0.22834 1494 ft 152 kts 254°
2026-04-17 13:04 51.14070 -0.24513 1996 ft 162 kts 255°
2026-04-17 13:04 51.13815 -0.26383 2292 ft 184 kts 254°
2026-04-17 13:04 51.13748 -0.28544 2531 ft 212 kts 278°
2026-04-17 13:05 51.14424 -0.30670 3129 ft 229 kts 308°
2026-04-17 13:05 51.15755 -0.32040 3907 ft 239 kts 341°
2026-04-17 13:05 51.17435 -0.32039 4691 ft 250 kts 17°
2026-04-17 13:05 51.18875 -0.30416 5433 ft 258 kts 56°
2026-04-17 13:06 51.19507 -0.27776 6200 ft 257 kts 80°
2026-04-17 13:06 51.19843 -0.24965 6942 ft 260 kts 81°
2026-04-17 13:06 51.20169 -0.22115 7648 ft 263 kts 81°
2026-04-17 13:06 51.20503 -0.19208 8189 ft 276 kts 81°
2026-04-17 13:07 51.20883 -0.16090 8544 ft 296 kts 80°
2026-04-17 13:07 51.21300 -0.12824 9176 ft 304 kts 79°
2026-04-17 13:07 51.21740 -0.09501 9886 ft 309 kts 79°
2026-04-17 13:07 51.22193 -0.06111 10435 ft 320 kts 79°
2026-04-17 13:08 51.22668 -0.02507 10605 ft 343 kts 79°
2026-04-17 13:08 51.23170 0.01334 10733 ft 365 kts 79°
2026-04-17 13:08 51.23695 0.05377 11103 ft 376 kts 79°
2026-04-17 13:08 51.24228 0.09493 11682 ft 381 kts 79°
2026-04-17 13:09 51.24756 0.13607 12266 ft 385 kts 80°
2026-04-17 13:09 51.25243 0.17835 12847 ft 388 kts 85°
2026-04-17 13:09 51.25319 0.22143 13435 ft 389 kts 96°
2026-04-17 13:09 51.25016 0.26440 13654 ft 392 kts 100°
2026-04-17 13:10 51.24685 0.30773 14146 ft 395 kts 99°
2026-04-17 13:10 51.24354 0.35133 14651 ft 398 kts 100°
2026-04-17 13:10 51.24017 0.39545 15166 ft 401 kts 100°
2026-04-17 13:10 51.23676 0.43985 15666 ft 404 kts 100°
2026-04-17 13:11 51.23332 0.48452 16177 ft 408 kts 100°
2026-04-17 13:11 51.22983 0.52950 16676 ft 411 kts 100°
2026-04-17 13:11 51.22629 0.57503 17222 ft 414 kts 100°
2026-04-17 13:11 51.22274 0.62076 17782 ft 417 kts 100°
2026-04-17 13:12 51.21917 0.66684 18309 ft 420 kts 100°
2026-04-17 13:12 51.21189 0.75995 19301 ft 426 kts 101°
2026-04-17 13:12 51.20816 0.80700 19807 ft 429 kts 101°
2026-04-17 13:13 51.20436 0.85454 20466 ft 433 kts 101°
2026-04-17 13:13 51.20052 0.90222 20893 ft 436 kts 101°
2026-04-17 13:13 51.19662 0.95022 21318 ft 438 kts 101°
2026-04-17 13:13 51.19266 0.99850 21746 ft 441 kts 101°
2026-04-17 13:14 51.18866 1.04720 22147 ft 444 kts 101°
2026-04-17 13:14 51.18463 1.09612 22539 ft 447 kts 101°
2026-04-17 13:14 51.18054 1.14539 22931 ft 450 kts 101°
2026-04-17 13:14 51.17639 1.19489 23321 ft 452 kts 101°
2026-04-17 13:15 51.17220 1.24481 23712 ft 455 kts 101°
2026-04-17 13:15 51.16800 1.29487 24031 ft 458 kts 101°
2026-04-17 13:15 51.16375 1.34533 24359 ft 460 kts 101°
2026-04-17 13:15 51.15989 1.39602 24680 ft 463 kts 99°
2026-04-17 13:16 51.15698 1.44715 25001 ft 465 kts 97°
2026-04-17 13:16 51.15472 1.49888 25315 ft 468 kts 96°
2026-04-17 13:16 51.15274 1.55067 25629 ft 470 kts 96°
2026-04-17 13:16 51.15073 1.60274 25942 ft 472 kts 96°
2026-04-17 13:17 51.14853 1.65497 26265 ft 474 kts 97°
2026-04-17 13:17 51.14608 1.70745 26585 ft 476 kts 97°
2026-04-17 13:17 51.14345 1.76007 26904 ft 478 kts 97°
2026-04-17 13:17 51.14067 1.81288 27260 ft 479 kts 97°
2026-04-17 13:18 51.13786 1.86564 27717 ft 477 kts 97°
2026-04-17 13:18 51.13505 1.91814 28171 ft 476 kts 97°
2026-04-17 13:18 51.13225 1.97067 28623 ft 475 kts 97°
2026-04-17 13:18 51.12952 2.02241 29075 ft 475 kts 97°
2026-04-17 13:19 51.12679 2.07471 29537 ft 474 kts 97°
2026-04-17 13:19 51.12406 2.12689 29988 ft 473 kts 97°
2026-04-17 13:19 51.12130 2.17903 30431 ft 472 kts 97°
2026-04-17 13:19 51.11851 2.23100 30830 ft 471 kts 97°
2026-04-17 13:20 51.11569 2.28282 31225 ft 470 kts 97°
2026-04-17 13:20 51.11281 2.33524 31626 ft 469 kts 97°
2026-04-17 13:20 51.10998 2.38618 32019 ft 467 kts 97°
2026-04-17 13:20 51.10703 2.43826 32428 ft 466 kts 97°
2026-04-17 13:21 51.10412 2.48893 32831 ft 465 kts 97°
2026-04-17 13:21 51.10115 2.54001 33232 ft 464 kts 97°
2026-04-17 13:21 51.09815 2.59105 33647 ft 463 kts 97°
2026-04-17 13:21 51.09473 2.64186 34043 ft 461 kts 101°
2026-04-17 13:22 51.08762 2.69135 34385 ft 458 kts 108°
2026-04-17 13:22 51.07880 2.74008 34693 ft 457 kts 108°
2026-04-17 13:22 51.07000 2.78865 34992 ft 457 kts 108°
2026-04-17 13:22 51.06108 2.83780 35181 ft 457 kts 108°
2026-04-17 13:23 51.04329 2.93545 35218 ft 469 kts 108°
2026-04-17 13:23 51.02498 3.03562 35212 ft 473 kts 107°
2026-04-17 13:24 51.00655 3.13590 35211 ft 474 kts 107°
2026-04-17 13:24 50.98791 3.23637 35206 ft 474 kts 108°
2026-04-17 13:25 50.96920 3.33675 35198 ft 474 kts 107°
2026-04-17 13:25 50.95050 3.43708 35200 ft 474 kts 107°
2026-04-17 13:26 50.93471 3.52110 35203 ft 475 kts 107°
2026-04-17 13:26 50.91266 3.63753 35203 ft 475 kts 107°
2026-04-17 13:27 50.89671 3.72155 35210 ft 475 kts 107°
2026-04-17 13:27 50.87755 3.82169 35216 ft 475 kts 107°
2026-04-17 13:28 50.85833 3.92176 35220 ft 475 kts 108°
2026-04-17 13:28 50.83904 4.02161 35224 ft 475 kts 108°
2026-04-17 13:29 50.81959 4.12178 35224 ft 475 kts 107°
2026-04-17 13:29 50.80025 4.22124 35229 ft 475 kts 107°
2026-04-17 13:30 50.78070 4.32089 35230 ft 475 kts 107°
2026-04-17 13:30 50.76105 4.42052 35232 ft 474 kts 107°
2026-04-17 13:31 50.74133 4.51990 35236 ft 474 kts 107°
2026-04-17 13:31 50.72157 4.61931 35236 ft 474 kts 107°
2026-04-17 13:32 50.70171 4.71850 35236 ft 474 kts 107°
2026-04-17 13:32 50.68171 4.81771 35236 ft 474 kts 107°
2026-04-17 13:33 50.66110 4.91639 35229 ft 474 kts 112°